User: anonymous   Login
Location: Betz
(49.1556°N, 2.9558°E)
Time: 12:08:55
(UTC+00:00)
Language:

Cosmos 2333 Rocket - Orbit

View from above orbital plane
View from above orbital plane
View from above satellite
View from above satellite

Ground track
Ground track

The orbit data is extracted from the following two-line orbital elements,

1 24298U 96051B   19315.61627273  .00000143  00000-0  10360-3 0  9990
2 24298  70.8367  11.9008 0017386 307.7621  52.1923 14.12446989195711
Epoch (UTC): 11 November 2019 14:47:25
Eccentricity: 0.0017386
inclination: 70.8367°
perigee height: 838 km
apogee height: 863 km
right ascension of ascending node: 11.9008°
argument of perigee: 307.7621°
revolutions per day: 14.12446989
mean anomaly at epoch: 52.1923°
orbit number at epoch: 19571

The dashed part of the orbit path shows where the satellite is in the earth's shadow,  

DLR